Weather History for Falfurrias, TX

Change the Weather History Date:

Saturday, April 6, 2013

  Actual Average (KNQI) Record (KNQI)
Temperature  
Mean Temperature 72 °F -  
Max Temperature 88 °F 78 °F 93 °F (2006)
Min Temperature 58 °F 60 °F 48 °F (2009)
Cooling Degree Days 8    
Growing Degree Days 22 (Base 50)    
Moisture  
Dew Point 58 °F    
Average Humidity 66    
Maximum Humidity 93    
Minimum Humidity 33    
Precipitation  
Precipitation 0.00 in - - ()
Sea Level Pressure  
Sea Level Pressure 29.97 in    
Wind  
Wind Speed 7 mph (SE)    
Max Wind Speed 21 mph    
Max Gust Speed 29 mph    
Visibility 10 miles    
Events      
Averages and records for this station are not official NWS values.
T = Trace of Precipitation, MM = Missing Value Source: NWS Daily Summary

Daily Weather History Graph

Daily Weather History Graph

Search for Another Location

Airport:

Trip Planner

Search our weather history database for the weather conditions in past years. The results will help you decide how hot, cold, wet, or windy it might be!

Date:

Astronomy

Apr. 06, 2013 Rise Set
Actual Time 7:17 AM CDT 7:52 PM CDT
Civil Twilight 6:53 AM CDT 8:16 PM CDT
Nautical Twilight 6:26 AM CDT 8:43 PM CDT
Astronomical Twilight 5:58 AM CDT 9:11 PM CDT
Moon 4:42 AM CDT (4/6) 4:39 PM CDT (4/6)
Length of Visible Light 13h 22m
Length of Day
12h 35m
Waning Crescent, 15% of the Moon is Illuminated
Apr 6
Waning Crescent
Apr 10
New
Apr 18
First Quarter
Apr 25
Full
May 2
Last Quarter

Hourly Weather History & Observations

Time (CDT) Temp. Heat Index Dew Point Humidity Pressure Visibility Wind Dir Wind Speed Gust Speed Precip Events Conditions
12:15 AM 62.6 °F - 57.6 °F 84% 30.09 in 10.0 mi East 5.8 mph - N/A   Clear
12:35 AM 62.2 °F - 57.4 °F 84% 30.09 in 10.0 mi ESE 3.5 mph - N/A   Clear
12:55 AM 61.7 °F - 57.2 °F 85% 30.09 in 10.0 mi SE 3.5 mph - N/A   Clear
1:15 AM 61.3 °F - 57.2 °F 86% 30.08 in 10.0 mi SE 4.6 mph - N/A   Clear
1:35 AM 61.2 °F - 57.2 °F 87% 30.07 in 10.0 mi SE 3.5 mph - N/A   Clear
1:55 AM 60.8 °F - 56.8 °F 87% 30.07 in 10.0 mi Calm Calm - N/A   Clear
2:15 AM 60.3 °F - 56.8 °F 88% 30.06 in 10.0 mi Calm Calm - N/A   Clear
2:35 AM 59.7 °F - 56.3 °F 88% 30.06 in 10.0 mi SSE 3.5 mph - N/A   Scattered Clouds
2:55 AM 59.9 °F - 56.8 °F 90% 30.05 in 10.0 mi Calm Calm - N/A   Mostly Cloudy
3:15 AM 59.9 °F - 56.3 °F 88% 30.04 in 10.0 mi Calm Calm - N/A   Overcast
3:35 AM 59.9 °F - 56.3 °F 88% 30.04 in 10.0 mi Calm Calm - N/A   Overcast
3:55 AM 60.1 °F - 56.5 °F 88% 30.03 in 10.0 mi Calm Calm - N/A   Scattered Clouds
4:15 AM 59.4 °F - 56.5 °F 90% 30.02 in 10.0 mi Calm Calm - N/A   Clear
4:35 AM 59.5 °F - 56.7 °F 90% 30.02 in 10.0 mi Calm Calm - N/A   Clear
4:55 AM 58.6 °F - 56.3 °F 92% 30.01 in 10.0 mi East 4.6 mph - N/A   Clear
5:15 AM 58.6 °F - 56.5 °F 93% 30.02 in 10.0 mi Calm Calm - N/A   Clear
5:55 AM 59.4 °F - 56.8 °F 91% 30.01 in 10.0 mi SE 5.8 mph - N/A   Clear
6:15 AM 59.5 °F - 56.7 °F 90% 30.02 in 10.0 mi SE 3.5 mph - N/A   Clear
6:35 AM 59.9 °F - 57.0 °F 90% 30.01 in 10.0 mi ESE 3.5 mph - N/A   Clear
6:55 AM 61.0 °F - 57.7 °F 89% 30.01 in 10.0 mi ESE 5.8 mph - N/A   Clear
7:15 AM 60.8 °F - 57.6 °F 89% 30.00 in 10.0 mi ESE 6.9 mph - N/A   Clear
7:35 AM 61.0 °F - 57.9 °F 90% 29.99 in 10.0 mi SE 8.1 mph - N/A   Clear
7:55 AM 62.4 °F - 58.5 °F 87% 30.00 in 10.0 mi ESE 8.1 mph - N/A   Clear
8:15 AM 63.9 °F - 59.0 °F 84% 30.00 in 10.0 mi SE 10.4 mph - N/A   Clear
8:35 AM 65.5 °F - 59.4 °F 81% 30.00 in 10.0 mi ESE 5.8 mph - N/A   Clear
8:55 AM 67.3 °F - 59.5 °F 76% 30.03 in 10.0 mi SE 9.2 mph 16.1 mph N/A   Clear
9:15 AM 68.0 °F - 59.7 °F 75% 30.02 in 10.0 mi SE 12.7 mph - N/A   Clear
9:55 AM 69.4 °F - 60.6 °F 73% 30.03 in 10.0 mi SE 12.7 mph - N/A   Clear
10:15 AM 71.4 °F - 60.8 °F 69% 30.03 in 10.0 mi SE 11.5 mph 17.3 mph N/A   Scattered Clouds
10:35 AM 72.3 °F - 60.4 °F 66% 30.04 in 10.0 mi SSE 13.8 mph 19.6 mph N/A   Mostly Cloudy
10:55 AM 72.9 °F - 60.3 °F 65% 30.03 in 10.0 mi SSE 10.4 mph 18.4 mph N/A   Overcast
11:15 AM 74.1 °F - 59.7 °F 61% 30.03 in 10.0 mi SSE 13.8 mph 19.6 mph N/A   Overcast
11:35 AM 76.1 °F - 58.8 °F 55% 30.02 in 10.0 mi SSE 13.8 mph 23.0 mph N/A   Overcast
11:55 AM 76.8 °F - 58.6 °F 53% 30.01 in 10.0 mi SSE 16.1 mph - N/A   Overcast
12:15 PM 79.0 °F - 58.3 °F 49% 29.99 in 10.0 mi SSE 17.3 mph 23.0 mph N/A   Overcast
12:35 PM 78.8 °F - 58.1 °F 49% 29.98 in 10.0 mi SSE 17.3 mph 28.8 mph N/A   Mostly Cloudy
12:55 PM 79.3 °F - 58.3 °F 48% 29.99 in 10.0 mi SSE 11.5 mph 21.9 mph N/A   Mostly Cloudy
1:15 PM 80.2 °F 80.7 °F 58.1 °F 47% 29.98 in 7.0 mi SSE 19.6 mph - N/A   Mostly Cloudy
1:35 PM 81.0 °F 81.2 °F 58.1 °F 46% 29.97 in 10.0 mi SSE 10.4 mph 21.9 mph N/A   Mostly Cloudy
1:55 PM 82.0 °F 81.8 °F 57.4 °F 43% 29.95 in 10.0 mi SSE 16.1 mph 24.2 mph N/A   Mostly Cloudy
2:15 PM 83.3 °F 82.6 °F 56.7 °F 40% 29.93 in 10.0 mi SSE 20.7 mph 25.3 mph N/A   Scattered Clouds
2:55 PM 84.2 °F 83.3 °F 56.7 °F 39% 29.91 in 10.0 mi SSE 13.8 mph 23.0 mph N/A   Clear
3:15 PM 85.3 °F 84.1 °F 55.9 °F 37% 29.90 in 10.0 mi SSE 17.3 mph 25.3 mph N/A   Clear
3:35 PM 85.8 °F 84.5 °F 55.9 °F 36% 29.89 in 10.0 mi South 15.0 mph 23.0 mph N/A   Clear
3:55 PM 86.7 °F 85.1 °F 55.4 °F 34% 29.88 in 10.0 mi SSE 12.7 mph 21.9 mph N/A   Clear
4:15 PM 87.3 °F 85.7 °F 55.4 °F 34% 29.87 in 10.0 mi SSE 15.0 mph 21.9 mph N/A   Clear
4:35 PM 87.8 °F 86.1 °F 55.6 °F 33% 29.86 in 10.0 mi South 17.3 mph 23.0 mph N/A   Clear
4:55 PM 86.9 °F 85.5 °F 56.1 °F 35% 29.85 in 10.0 mi SSE 10.4 mph - N/A   Clear
5:15 PM 87.1 °F 85.7 °F 55.9 °F 35% 29.85 in 10.0 mi SSE 13.8 mph 24.2 mph N/A   Clear
5:35 PM 87.1 °F 85.5 °F 55.8 °F 34% 29.84 in 7.0 mi South 17.3 mph 26.5 mph N/A   Clear
5:55 PM 86.5 °F 85.1 °F 56.1 °F 35% 29.84 in 10.0 mi South 10.4 mph 19.6 mph N/A   Clear
6:15 PM 85.8 °F 84.7 °F 57.0 °F 37% 29.85 in 5.0 mi SSE 12.7 mph 23.0 mph N/A   Clear
6:35 PM 85.1 °F 84.4 °F 58.1 °F 40% 29.84 in 10.0 mi South 12.7 mph - N/A   Clear
6:55 PM 84.4 °F 84.0 °F 58.8 °F 42% 29.85 in 7.0 mi SSE 15.0 mph - N/A   Clear
7:15 PM 83.1 °F 83.0 °F 59.0 °F 44% 29.85 in 7.0 mi SSE 10.4 mph 19.6 mph N/A   Clear
7:35 PM 81.9 °F 82.2 °F 59.5 °F 47% 29.86 in 7.0 mi ESE 13.8 mph 19.6 mph N/A   Clear
7:55 PM 78.8 °F - 61.5 °F 55% 29.86 in 10.0 mi ESE 13.8 mph 18.4 mph N/A   Scattered Clouds
8:15 PM 77.2 °F - 61.9 °F 59% 29.87 in 10.0 mi SE 15.0 mph 25.3 mph N/A   Scattered Clouds
8:35 PM 75.9 °F - 62.1 °F 62% 29.86 in 10.0 mi ESE 15.0 mph 21.9 mph N/A   Clear
8:55 PM 75.2 °F - 62.2 °F 64% 29.88 in 10.0 mi SE 12.7 mph 18.4 mph N/A   Clear
9:15 PM 74.3 °F - 62.2 °F 66% 29.89 in 10.0 mi SE 12.7 mph 19.6 mph N/A   Clear
9:35 PM 73.8 °F - 62.2 °F 67% 29.90 in 10.0 mi SE 15.0 mph 19.6 mph N/A   Clear
9:55 PM 73.4 °F - 62.2 °F 68% 29.91 in 10.0 mi ESE 10.4 mph 17.3 mph N/A   Clear
10:15 PM 72.9 °F - 62.1 °F 69% 29.92 in 7.0 mi SE 9.2 mph 18.4 mph N/A   Clear
10:35 PM 72.7 °F - 62.2 °F 70% 29.93 in 10.0 mi SE 11.5 mph 16.1 mph N/A   Clear
11:15 PM 71.6 °F - 62.1 °F 72% 29.93 in 10.0 mi SE 8.1 mph - N/A   Mostly Cloudy
11:35 PM 71.1 °F - 62.1 °F 73% 29.92 in 10.0 mi SE 9.2 mph - N/A   Scattered Clouds
11:55 PM 70.7 °F - 61.9 °F 74% 29.93 in 10.0 mi SE 6.9 mph - N/A   Scattered Clouds